TimeAKST,TemperatureF,Dew PointF,Humidity,Sea Level PressureIn,VisibilityMPH,Wind Direction,Wind SpeedMPH,Gust SpeedMPH,PrecipitationIn,Events,Conditions,WindDirDegrees,DateUTC
12:53 AM,-11.0,-16.1,78,29.49,10.0,Calm,Calm,-,N/A,,Mostly Cloudy,0,2012-12-14 09:53:00
1:53 AM,-7.1,-11.0,83,29.48,10.0,Calm,Calm,-,N/A,Snow,Light Snow,0,2012-12-14 10:53:00
3:53 AM,-5.1,-9.0,83,29.47,10.0,NNE,4.6,-,N/A,,Mostly Cloudy,30,2012-12-14 12:53:00
4:53 AM,-4.0,-8.0,83,29.46,10.0,North,3.5,-,N/A,,Mostly Cloudy,10,2012-12-14 13:53:00
5:53 AM,-0.9,-6.0,79,29.45,10.0,Calm,Calm,-,N/A,Snow,Light Snow,0,2012-12-14 14:53:00
6:53 AM,1.0,-4.0,79,29.44,6.0,Calm,Calm,-,N/A,Snow,Light Snow,0,2012-12-14 15:53:00
7:53 AM,-2.0,-6.0,83,29.44,6.0,Calm,Calm,-,N/A,Snow,Light Snow,0,2012-12-14 16:53:00
8:53 AM,-2.0,-7.1,79,29.43,7.0,Calm,Calm,-,N/A,Snow,Light Snow,0,2012-12-14 17:53:00
9:53 AM,-4.0,-8.0,83,29.44,7.0,SSE,3.5,-,N/A,,Overcast,160,2012-12-14 18:53:00
10:41 AM,-4.0,-7.6,85,29.38,3.0,Calm,Calm,-,N/A,Snow,Light Snow,0,2012-12-14 19:41:00
10:53 AM,-4.0,-8.0,83,29.43,2.5,Calm,Calm,-,N/A,Snow,Light Snow,0,2012-12-14 19:53:00
11:07 AM,-2.2,-7.6,78,29.38,2.0,Calm,Calm,-,N/A,Snow,Light Snow,0,2012-12-14 20:07:00
11:13 AM,-2.2,-7.6,78,29.38,1.0,Calm,Calm,-,N/A,Snow,Light Snow,0,2012-12-14 20:13:00
11:53 AM,-2.9,-7.1,82,29.43,2.0,Calm,Calm,-,N/A,Snow,Light Snow,0,2012-12-14 20:53:00
12:33 PM,-2.2,-7.6,78,29.38,3.0,Calm,Calm,-,N/A,Snow,Light Snow,0,2012-12-14 21:33:00
12:53 PM,-2.9,-7.1,82,29.43,4.0,Calm,Calm,-,N/A,Snow,Light Snow,0,2012-12-14 21:53:00
1:53 PM,-2.9,-8.0,79,29.42,4.0,Calm,Calm,-,N/A,Snow,Light Snow,0,2012-12-14 22:53:00
2:53 PM,-6.0,-9.9,83,29.42,6.0,Calm,Calm,-,N/A,,Mostly Cloudy,0,2012-12-14 23:53:00
3:53 PM,-9.9,-14.1,82,29.43,10.0,Calm,Calm,-,N/A,,Scattered Clouds,0,2012-12-15 00:53:00
4:53 PM,-13.0,-18.0,78,29.43,10.0,Calm,Calm,-,N/A,,Scattered Clouds,0,2012-12-15 01:53:00
5:53 PM,-18.9,-23.1,81,29.44,10.0,South,3.5,-,N/A,,Scattered Clouds,190,2012-12-15 02:53:00
6:53 PM,-20.9,-25.1,81,29.44,10.0,Calm,Calm,-,N/A,,Scattered Clouds,0,2012-12-15 03:53:00
7:53 PM,-24.0,-29.0,77,29.45,7.0,Calm,Calm,-,N/A,,Scattered Clouds,0,2012-12-15 04:53:00
8:53 PM,-23.1,-27.0,82,29.45,5.0,Calm,Calm,-,N/A,,Scattered Clouds,0,2012-12-15 05:53:00
9:53 PM,-25.1,-29.9,78,29.46,5.0,Calm,Calm,-,N/A,,Scattered Clouds,0,2012-12-15 06:53:00
10:53 PM,-22.0,-27.9,74,29.47,6.0,Calm,Calm,-,N/A,,Mostly Cloudy,0,2012-12-15 07:53:00
11:53 PM,-20.9,-27.0,73,29.49,5.0,Calm,Calm,-,N/A,Snow,Light Snow,0,2012-12-15 08:53:00